Погода в Тыврове

Украина / Винницкая область     49°00′43″N   28°30′13″E
темп.,
°C
ветер,
м/с
пор.,
м/с
влажн.,
%
обл.,
%
осадки,
мм/ч
давл.,
гПа
погр.,
м
21 апреля, ср
ср2100:00+6зсз328299 0.0 101134
03:00+5зсз358799 0.0 1012104
06:00+4зсз369299 0.0 1012131
09:00+8зсз45755 0.0 1013560
12:00+12зсз465372 0.1 10131672
15:00+12зсз4553100 0.1 10141341
18:00+13з465487 0.0 10131334
21:00+10ююз226874 0.4 101511
22 апреля, чт
чт2200:00+7юз387571 0.0 1016131
03:00+7юз387917 0.0 1016117
06:00+6юз3779100 0.0 1016131
09:00+11ююз236687 0.0 1017210
12:00+15ююз454714 0.0 10161457
15:00+17ююз564289 0.0 10152386
18:00+14ю245956 0.0 1014103
21:00+11юз366795 0.1 101598
23 апреля, пт
пт2300:00+9юз118488 0.9 101510
03:00+7ссз349426 0.9 101562
06:00+6с589097 0.0 1016379
09:00+5ссз6792100 0.1 1017656
12:00+2ссз4899100 4.3 1018345
15:00+5зсз3689100 6.8 1018674
18:00+9сз5757100 0.1 10171613
21:00+5зюз117799 0.2 101810
24 апреля, сб
сб2400:00+3сз3579100 0.1 101986
03:00+2зсз368070 0.1 1019104
06:00+1зсз41188100 0.0 1020336
09:00+5зсз68735 0.0 1020939
12:00+7зсз895696 0.7 10201700
15:00+8зсз7947100 1.1 10192278
18:00+7зсз895192 0.4 10191683
21:00+3з377070 0.4 1021129
25 апреля, вс
вс2500:00+1з34750 0.0 102159
03:00+1зюз357171 0.0 102071
06:00+1з41177100 0.0 1020332
09:00+4зсз5785100 0.1 1020663
12:00+6зсз5669100 0.5 10191055
15:00+6сз576382 1.5 10191417
18:00+7сз675141 0.2 10191695
21:00+2зсз36695 0.3 102096